Location: Caixon
(43.4106°N, 0.0273°E)
Time: 22:45:12
(UTC+00:00)

Okean 2 Rocket - Pass Details

Date: 16 October 2021
Orbit: 616 x 642 km, 82.5° (Epoch: 07 December)

Event Time Altitude Azimuth Distance (km) Brightness Sun altitude
Rises 05:18:37 0° 340° (NNW) 2,956 6.3 -11.0°
Reaches altitude 10° 05:21:08 10° 328° (NNW) 2,043 5.4 -10.6°
Maximum altitude 05:24:55 27° 271° (W) 1,248 4.0 -9.9°
Drops below altitude 10° 05:28:41 10° 215° (SW) 2,030 5.4 -9.2°
Sets 05:31:11 0° 203° (SSW) 2,933 6.3 -8.7°
